Regional Weather Roundup
Issued by NWS Green Bay, WI

Home | Current Version | Previous Version | Text Only | Print | Product List | Glossary On
Versions: 1 2 3 4 5 6 7 8 9 10 11 12 13 14 15 16 17 18 19 20 21 22 23 24 25 26 27 28 29 30 31 32 33 34 35 36 37 38 39 40 41 42 43 44 45 46 47 48 49 50
000
ASUS43 KGRB 171800
RWRGRB

NORTH-CENTRAL AND NORTHEAST WISCONSIN REGIONAL WEATHER ROUNDUP
NATIONAL WEATHER SERVICE GREEN BAY WI
1200 PM CST FRI NOV 17 2017

WIZ005-009-010>012-018-019-171900-
NORTH CENTRAL WISCONSIN

CITY           SKY/WX    TMP DP  RH WIND       PRES   REMARKS
IRONWOOD       LGT RAIN N/A N/A N/A S16G25    29.68F
MANITOWISH WTR NOT AVBL
ARBOR VITAE    NOT AVBL
EAGLE RIVER    MIX PCPN  32  32  99 S8        29.70F
LAND O LAKES   NOT AVBL
RHINELANDER    LGT RAIN  33  31  92 S12G22    29.71F FOG
PHILLIPS       CLOUDY    32  32 100 S9        29.69F
ANTIGO         NOT AVBL
TOMAHAWK       NOT AVBL
MERRILL        RAIN      33  32  95 S8        29.73F
$$

WIZ013-073-171900-
NORTHEAST WISCONSIN

CITY           SKY/WX    TMP DP  RH WIND       PRES   REMARKS
IRON MOUNTAIN  CLOUDY    36  32  85 SE13G22   29.75F
MARINETTE      CLOUDY    42  35  76 S16G25    29.83F
$$

WIZ017-030-035>037-045-171900-
CENTRAL WISCONSIN

CITY           SKY/WX    TMP DP  RH WIND       PRES   REMARKS
MEDFORD        NOT AVBL
WAUSAU         LGT RAIN  35  30  82 SE13      29.72F
MOSINEE        CLOUDY    34  30  86 S14       29.75F
MARSHFIELD     LGT RAIN  34  30  85 SE12      29.71F FOG
WISC RAPIDS    LGT RAIN  36  30  79 S9        29.76F
STEVENS POINT  NOT AVBL
WAUPACA        NOT AVBL
SHAWANO        CLOUDY    40  32  74 S6        29.83F
CLINTONVILLE   NOT AVBL
WAUTOMA        LGT RAIN  37  30  75 S12G18    29.80F
$$

WIZ038-039-048-051-171900-
FOX VALLEY

CITY           SKY/WX    TMP DP  RH WIND       PRES   REMARKS
NWS GREEN BAY  CLOUDY    41  34  76 S17       29.85F
APPLETON       CLOUDY    37  28  70 S16G23    29.82F
OSHKOSH        CLOUDY    39  30  70 S18G26    29.82F
FOND DU LAC    CLOUDY    40  29  64 S18       29.83F
$$

WIZ022-050-052-171900-
EAST CENTRAL WISCONSIN

CITY           SKY/WX    TMP DP  RH WIND       PRES   REMARKS
EPHRAIM        NOT AVBL
WASHINGTON ISL NOT AVBL
STURGEON BAY   CLOUDY    42  36  79 S17G31    29.86F
MANITOWOC      CLOUDY    41  36  82 S21G29    29.88F
SHEBOYGAN      CLOUDY    41  36  82 S24G35    29.88F
$$

LMZ563-521-522-541>543-171900-
LAKESHORE

STATION/POSITION TIME  TEMP    WIND        PRES    VSBY  WAVE
                       AIR SEA DIR/SP/G                  HT/PER
                 (UTC) (F)     (DEG/KT/KT) (MB)    (MI)  (FT/S)
SHEBOYGAN LKSHOR 1700   40     170/ 28/ 32 1013.0F
KEWAUNEE LKSHORE 1730   41     180/ 21/ 26 1012.1F
NORTHPORT PIER   1740   42     160/ 14/ 21 1012.2F
N MID LAKE BUOY  1650   40 49  170/ 23/ 29 1015.3F         6/ 6
MENOMINEE LKSHOR 1730   41     180/ 15/ 20 1011.4F
$$




USA.gov is the U.S. government's official web portal to all federal, state and local government web resources and services.